Location: Borowce
(50.8255°N, 19.6209°E)
Time: 22:37:49
(UTC+00:00)

Nadezhda 3 Rocket - Pass Details

Date: 19 May 2025
Orbit: 957 x 997 km, 82.9° (Epoch: 16 June)

Event Time Altitude Azimuth Distance (km) Brightness Sun altitude
Exits shadow 21:21:59 23° 189° (S) 1,937 5.1 -17.3°
Maximum altitude 21:26:05 88° 278° (W) 977 4.0 -17.5°
Drops below altitude 10° 21:32:23 10° 10° (N) 2,737 7.3 -17.7°
Sets 21:34:55 0° 10° (N) 3,695 8.2 -17.9°
